Change the Weather History Date:

Monday, April 21, 2014

  Actual Average Record
Temperature  
Mean Temperature 66 °F -  
Max Temperature 76 °F 71 °F 77 °F (2007)
Min Temperature 57 °F 52 °F 44 °F (1998)
Cooling Degree Days 2    
Growing Degree Days 16 (Base 50)    
Moisture  
Dew Point 51 °F    
Average Humidity 61    
Maximum Humidity 94    
Minimum Humidity 28    
Precipitation  
Precipitation 0.02 in 0.08 in - ()
Sea Level Pressure  
Sea Level Pressure 29.70 in    
Wind  
Wind Speed 6 mph ()    
Max Wind Speed 16 mph    
Max Gust Speed -    
Visibility 8.3 miles    
Events Rain    
Averages and records for this station are not official NWS values.
T = Trace of Precipitation, MM = Missing Value Source: Averaged Metar Reports

Daily Weather History Graph

Daily Weather History Graph

Search for Another Location

Airport or City:

Trip Planner

Search our weather history database for the weather conditions in past years. The results will help you decide how hot, cold, wet, or windy it might be!

Date:

Astronomy

Apr. 21, 2014 Rise Set
Actual Time 6:15 AM CEST 7:48 PM CEST
Civil Twilight 5:46 AM CEST 8:17 PM CEST
Nautical Twilight 5:11 AM CEST 8:52 PM CEST
Astronomical Twilight 4:34 AM CEST 9:29 PM CEST
Moon 1:05 AM CEST (4/21) 11:21 AM CEST (4/21)
Length of Visible Light 14h 31m
Length of Day
13h 33m
Waning Gibbous, 60% of the Moon is Illuminated
Apr 21
Waning Gibbous
Apr 22
Last Quarter
Apr 29
New
May 7
First Quarter
May 14
Full

Hourly Weather History & Observations

Time (CEST) Temp. Dew Point Humidity Pressure Visibility Wind Dir Wind Speed Gust Speed Precip Events Conditions
12:20 AM 57.2 °F 48.2 °F 72% 29.74 in 6.2 mi NW 6.9 mph - N/A   Partly Cloudy
12:50 AM 57.2 °F 50.0 °F 77% 29.74 in 6.2 mi West 6.9 mph - N/A   Partly Cloudy
1:20 AM 59.0 °F 50.0 °F 72% 29.74 in 6.2 mi Variable 2.3 mph - N/A   Partly Cloudy
1:50 AM 59.0 °F 50.0 °F 72% 29.71 in 6.2 mi North 4.6 mph - N/A   Scattered Clouds
2:00 AM 59 °F 48 °F 58% 29.71 in 16 mi North 3.5 mph - - Rain Light Rain
2:20 AM 57.2 °F 50.0 °F 77% 29.68 in 6.2 mi NNE 4.6 mph - N/A   Scattered Clouds
2:50 AM 57.2 °F 50.0 °F 77% 29.65 in 6.2 mi North 5.8 mph - N/A   Scattered Clouds
3:20 AM 59.0 °F 50.0 °F 72% 29.65 in 6.2 mi NNW 5.8 mph - N/A   Scattered Clouds
3:50 AM 59.0 °F 48.2 °F 67% 29.65 in 6.2 mi NNW 6.9 mph - N/A   Scattered Clouds
4:20 AM 60.8 °F 48.2 °F 63% 29.65 in 6.2 mi NNW 9.2 mph - N/A   Scattered Clouds
4:50 AM 60.8 °F 48.2 °F 63% 29.62 in 6.2 mi NNW 4.6 mph - N/A   Scattered Clouds
5:00 AM 60 °F 47 °F 53% 29.64 in 16 mi North 5.8 mph - -   Partly Cloudy
5:20 AM 59.0 °F 48.2 °F 67% 29.62 in 6.2 mi WNW 3.5 mph - N/A   Scattered Clouds
5:50 AM 60.8 °F 48.2 °F 63% 29.62 in 6.2 mi NNW 6.9 mph - N/A   Mostly Cloudy
6:20 AM 60.8 °F 48.2 °F 63% 29.62 in 6.2 mi NNW 3.5 mph - N/A   Mostly Cloudy
6:50 AM 60.8 °F 48.2 °F 63% 29.65 in 6.2 mi NW 6.9 mph - N/A   Mostly Cloudy
7:20 AM 60.8 °F 48.2 °F 63% 29.65 in 6.2 mi NNW 8.1 mph - N/A   Mostly Cloudy
7:50 AM 60.8 °F 48.2 °F 63% 29.65 in 6.2 mi WNW 4.6 mph - N/A   Mostly Cloudy
8:00 AM 62 °F 49 °F 52% 29.67 in 16 mi NW 4.6 mph - -   Mostly Cloudy
8:20 AM 62.6 °F 50.0 °F 63% 29.65 in 6.2 mi NW 3.5 mph - N/A   Mostly Cloudy
8:50 AM 62.6 °F 50.0 °F 63% 29.65 in 6.2 mi NNW 4.6 mph - N/A   Mostly Cloudy
9:20 AM 62.6 °F 50.0 °F 63% 29.65 in 6.2 mi NNW 6.9 mph - N/A   Mostly Cloudy
9:50 AM 64.4 °F 51.8 °F 64% 29.65 in 6.2 mi Variable 2.3 mph - N/A   Mostly Cloudy
10:20 AM 68.0 °F 53.6 °F 60% 29.65 in 6.2 mi North 5.8 mph - N/A   Scattered Clouds
10:50 AM 69.8 °F 53.6 °F 56% 29.65 in 6.2 mi NE 3.5 mph - N/A   Partly Cloudy
11:00 AM 74 °F 55 °F 40% 29.67 in 16 mi NNW 1.2 mph - -   Scattered Clouds
11:20 AM 73.4 °F 51.8 °F 47% 29.65 in 6.2 mi NNW 3.5 mph - N/A   Partly Cloudy
11:50 AM 75.2 °F 50.0 °F 41% 29.65 in - NNW 6.9 mph - N/A   Clear
12:20 PM 75.2 °F 50.0 °F 41% 29.65 in - WNW 5.8 mph - N/A   Clear
12:50 PM 75.2 °F 46.4 °F 36% 29.65 in - NNW 4.6 mph - N/A   Clear
1:20 PM 77.0 °F 50.0 °F 39% 29.65 in - WNW 6.9 mph - N/A   Clear
1:50 PM 77.0 °F 48.2 °F 36% 29.65 in - West 6.9 mph - N/A   Clear
2:00 PM 76 °F 49 °F 28% 29.66 in 16 mi West 8.1 mph - -  
2:20 PM 73.4 °F 44.6 °F 36% 29.65 in - WNW 13.8 mph - N/A   Clear
2:50 PM 75.2 °F 46.4 °F 36% 29.65 in - West 12.7 mph - N/A   Clear
3:20 PM 75.2 °F 46.4 °F 36% 29.65 in - WNW 12.7 mph - N/A   Clear
3:50 PM 75.2 °F 48.2 °F 38% 29.65 in - West 12.7 mph - N/A   Clear
4:20 PM 75.2 °F 46.4 °F 36% 29.68 in - West 13.8 mph - N/A   Clear
4:50 PM 69.8 °F 46.4 °F 43% 29.68 in - WNW 15.0 mph - N/A   Clear
5:00 PM 69 °F 48 °F 36% 29.70 in 16 mi WNW 16.1 mph - -  
6:20 PM 68.0 °F 46.4 °F 46% 29.71 in - SW 3.5 mph - N/A   Clear
6:50 PM 68.0 °F 50.0 °F 52% 29.74 in - South 4.6 mph - N/A   Clear
7:20 PM 66.2 °F 55.4 °F 68% 29.74 in - South 6.9 mph - N/A   Clear
7:50 PM 62.6 °F 55.4 °F 77% 29.77 in - South 6.9 mph - N/A   Clear
8:00 PM 63 °F 56 °F 71% 29.78 in 12 mi South 4.6 mph - -  
8:20 PM 62.6 °F 57.2 °F 82% 29.77 in - South 5.8 mph - N/A   Clear
8:50 PM 62.6 °F 55.4 °F 77% 29.80 in - South 5.8 mph - N/A   Clear
9:20 PM 60.8 °F 57.2 °F 88% 29.80 in - South 3.5 mph - N/A   Clear
9:50 PM 60.8 °F 57.2 °F 88% 29.83 in - South 4.6 mph - N/A   Clear
10:20 PM 60.8 °F 57.2 °F 88% 29.83 in - South 6.9 mph - N/A   Clear
10:50 PM 60.8 °F 57.2 °F 88% 29.83 in - South 5.8 mph - N/A   Clear
11:00 PM 60 °F 58 °F 91% 29.85 in 7 mi South 5.8 mph - -  
11:20 PM 60.8 °F 59.0 °F 94% 29.83 in - South 5.8 mph - N/A   Clear
11:50 PM 60.8 °F 59.0 °F 94% 29.83 in - South 5.8 mph - N/A   Clear